• Join FlightAware (Why Join?)
  • Login
  • US Flag 
09:39PM EDT


 

Airport Tracker/Info


-or-


 

Live Flight TrackerFlight Track Log ✈ TCF3494 ✈ 23-Sep-2013 ✈ KDEN - KSLC

Flight Track Log - Related Links

Times and Time Zones

All times are in EDT time to prevent confusion due to time zone crossing. See the TCF3494 flight status page for this flight to view local times or setup timezone preferences in your user account.

Time Position Orientation Groundspeed Altitude Reporting Facility
EDT Latitude Longitude Course Direction KTS MPH feet Rate Location/Type
10:29AM 39.8500 -104.7667 277° West 166 191 7,000  Level Denver TRACON
10:30AM 39.8667 -104.8167 293° West 230 265 8,200 1,620 Climbing Denver TRACON
10:32AM 39.9022 -104.9325 292° West 267 307 11,000 2,280 Climbing Denver Center
10:33AM 39.9169 -105.0761 278° West 323 372 13,900 2,460 Climbing Denver Center
10:34AM 39.9294 -105.2061 277° West 339 390 16,200 2,100 Climbing Denver Center
10:35AM 39.9596 -105.2950 277° West  Level Estimated
10:35AM 39.9408 -105.3353 277° West 359 413 18,300  Level Denver Center
10:36AM 39.9550 -105.4800 277° West 374 430 21,200 2,040 Climbing Denver Center
10:37AM 39.9672 -105.6097 277° West 365 420 22,600 1,500 Climbing Denver Center
10:38AM 39.9733 -105.7492 273° West 398 458 24,300 1,200 Climbing Denver Center
10:39AM 39.9703 -105.8631 268° West 390 449 25,100 1,320 Climbing Denver Center
10:40AM 39.9836 -106.0794 275° West 427 491 27,100 1,440 Climbing Denver Center
10:41AM 39.9908 -106.2358 273° West 432 497 28,100 1,080 Climbing Denver Center
10:42AM 39.9992 -106.3958 274° West 443 510 29,400 660 Climbing Denver Center
10:44AM 40.0150 -106.6850 274° West 455 524 30,000 180 Climbing Salt Lake Center
10:45AM 40.0231 -106.8397 274° West 451 519 30,000  Level Salt Lake Center
10:46AM 40.0297 -107.0178 273° West 442 509 30,000  Level Salt Lake Center
10:47AM 40.0369 -107.1689 274° West 439 505 30,000  Level Salt Lake Center
10:48AM 40.0433 -107.3203 273° West 438 504 30,000  Level Salt Lake Center
10:49AM 40.0503 -107.4919 273° West 428 493 30,000  Level Salt Lake Center
10:50AM 40.0567 -107.6381 273° West 424 488 30,000  Level Salt Lake Center
10:51AM 40.0631 -107.8081 273° West 422 486 30,000  Level Salt Lake Center
10:52AM 40.0686 -107.9531 273° West 420 483 30,000  Level Salt Lake Center
10:53AM 40.0769 -108.1228 274° West 420 483 30,000  Level Salt Lake Center
10:54AM 40.0831 -108.2675 273° West 421 484 30,000  Level Salt Lake Center
10:55AM 40.0903 -108.4306 273° West 409 471 30,000  Level Salt Lake Center
10:56AM 40.0961 -108.5706 273° West 407 468 30,000  Level Salt Lake Center
10:57AM 40.1025 -108.7322 273° West 403 464 30,000  Level Salt Lake Center
10:58AM 40.1078 -108.8689 273° West 399 459 30,000  Level Salt Lake Center
10:59AM 40.1108 -108.9367 273° West 397 457 30,000  Level Denver Center
11:00AM 40.1158 -109.0931 272° West 391 450 30,000  Level Denver Center
11:01AM 40.1217 -109.2547 273° West 399 459 30,000  Level Denver Center
11:02AM 40.1258 -109.3922 272° West 398 458 30,000  Level Denver Center
11:03AM 40.1311 -109.5525 273° West 397 457 30,000  Level Denver Center
11:04AM 40.1356 -109.6883 272° West 394 453 30,000  Level Denver Center
11:05AM 40.1400 -109.8525 272° West 404 465 30,000  Level Denver Center
11:06AM 40.1450 -109.9914 273° West 402 463 30,000  Level Denver Center
11:07AM 40.1486 -110.1533 272° West 399 459 30,000  Level Denver Center
11:09AM 40.1467 -110.3581 269° West 393 452 30,000  Level Salt Lake Center
11:10AM 40.1458 -110.5186 270° West 396 456 30,000 -480 Level Salt Lake Center
11:11AM 40.1442 -110.6558 269° West 395 455 29,100 -1,620 Descending Salt Lake Center
11:12AM 40.1422 -110.8164 269° West 395 455 26,700 -2,040 Descending Salt Lake Center
11:13AM 40.1400 -110.9378 269° West 389 448 25,000 -1,980 Descending Salt Lake Center
11:14AM 40.1386 -111.1017 269° West 377 434 22,600 -2,100 Descending Salt Lake Center
11:15AM 40.1372 -111.2317 269° West 362 417 20,700 -1,860 Descending Salt Lake Center
11:16AM 40.1333 -111.3606 268° West 355 409 18,800 -1,860 Descending Salt Lake Center
11:17AM 40.1317 -111.4858 269° West 347 399 16,900 -1,860 Descending Salt Lake Center
11:17AM 40.1339 -111.5661 272° West 334 384 16,000 -900 Descending Salt Lake Center
11:18AM 40.1511 -111.6192 293° West 326 375 16,000  Level Salt Lake Center
11:18AM 40.1511 -111.6028 90° East 330 380 16,000 -120 Level Salt Lake Center
11:19AM 40.1969 -111.7186 297° West 327 376 15,900  Descending Salt Lake Center
11:19AM 40.1961 -111.7050 95° East 323 372 16,000 -1,500 Climbing Salt Lake Center
11:20AM 40.2600 -111.7914 314° West 329 379 14,300 -1,980 Descending Salt Lake Center
11:20AM 40.2719 -111.8139 305° West 328 377 13,900 -2,160 Descending Salt Lake Center
11:21AM 40.3353 -111.8825 320° Northwest 317 365 12,300 -1,740 Descending Salt Lake Center
11:21AM 40.3408 -111.8814 North 318 366 12,200 -1,620 Descending Salt Lake Center
11:22AM 40.4058 -111.9344 328° Northwest 285 328 10,700 -1,500 Descending Salt Lake Center
11:22AM 40.4108 -111.9311 27° Northeast 278 320 10,700 -720 Level Salt Lake Center
11:23AM 40.4786 -111.9436 352° North 266 306 10,000 -780 Descending Salt Lake Center
11:23AM 40.4853 -111.9394 25° Northeast 267 307 9,900 -1,380 Descending Salt Lake Center
11:24AM 40.5492 -111.9508 352° North 236 272 8,600 -1,380 Descending Salt Lake Center
11:24AM 40.5536 -111.9475 30° Northeast 242 278 8,500 -1,200 Descending Salt Lake Center
11:25AM 40.6128 -111.9575 353° North 203 234 7,300 -1,080 Descending Salt Lake Center
11:25AM 40.6108 -111.9547 133° Southeast 206 237 7,400 -840 Climbing Salt Lake Center
11:26AM 40.6622 -111.9603 355° North 187 215 6,400 -1,080 Descending Salt Lake Center
11:27AM 40.7075 -111.9678 353° North 173 199 5,500 -1,080 Descending Salt Lake Center
11:27AM 40.7175 -111.9664 North 168 193 5,300 -840 Descending Salt Lake Center
11:28AM 40.7469 -111.9714 353° North 143 165 4,700 -720 Descending Salt Lake Center
11:28AM 40.7556 -111.9708 North 141 162 4,600 -420 Descending Salt Lake Center
11:29AM 40.7931 -111.9747 356° North 136 157 4,200 -420 Descending Salt Lake Center